USA 99 (MILSTAR-1 1)

Last updated on Thu Oct 30 2025 00:02:47 GMT+0000 (Coordinated Universal Time)

1 22988U 94009A 25302.25704904 -.00000185 00000+0 00000+0 0 9997 2 22988 17.2735 30.1840 0002733 220.0514 150.1313 1.00270504 30647
UTC large
Height (km)
Speed (km/s)
/
Latitude / Longitude
Inclination (degrees)
Orbital Period (minutes)
Azimuth
Elevation
Range (km)
Doppler Factor

Next 0 passes for location: London (51.5072 / 0.1276)

Sorry there are no passes over London.